Wind_Speed
5 5 5 6 8 9 10 10 10 10 10 9 9 8 8 8 8 7 7 6 6 6 5 5 5 5 5 5 5 5 5 5 5 5 5 6 6 6 6 6 6 6 6
4 4 5 6 7 8 9 9 10 9 9 9 8 8 8 8 7 7 6 6 6 6 5 5 5 5 5 5 5 5 5 5 5 5 5 5 5 5 5 6 6 6 6
4 4 4 5 6 6 7 8 9 9 8 8 8 7 7 7 7 7 7 6 6 6 6 6 5 5 5 5 4 4 4 5 5 5 4 4 5 5 5 5 5 6 6
3 3 4 4 5 6 6 7 7 7 8 8 8 7 7 7 7 7 6 6 6 6 6 6 5 5 5 5 4 4 4 4 4 4 4 4 5 5 5 5 6 6 7
3 3 4 4 5 5 5 6 7 7 7 7 7 7 6 6 6 7 6 6 6 6 5 5 5 5 5 5 4 4 4 4 4 4 4 5 5 5 4 5 5 6 6
3 3 4 4 5 5 5 6 6 6 6 6 6 6 6 5 5 6 6 6 6 6 5 5 4 4 4 4 4 4 4 4 4 4 4 4 4 4 4 4 4 5 5
3 3 4 5 4 4 5 5 5 5 6 6 6 6 5 5 5 5 6 6 6 6 5 4 4 4 4 4 4 4 4 4 4 4 4 4 4 4 4 4 4 5 5
3 3 4 5 4 4 4 4 4 4 4 4 5 5 5 5 5 5 5 6 5 5 4 4 4 4 4 4 4 4 4 4 4 4 4 4 4 3 3 3 4 4 4
3 4 5 5 4 4 4 4 4 4 3 4 4 4 4 4 4 4 4 5 5 5 4 4 4 3 3 4 4 4 4 4 4 4 4 4 4 3 3 3 3 3 3
4 4 4 4 4 4 4 4 4 3 3 3 3 3 3 3 3 3 4 5 5 5 4 4 4 3 3 4 4 4 5 4 4 5 4 4 3 3 2 2 2 2 2
4 4 4 4 4 3 3 3 2 2 2 1 1 1 2 2 2 2 3 4 4 4 4 3 3 3 3 3 4 4 4 4 4 4 5 4 3 3 2 2 2 2 2
4 3 3 3 3 2 2 2 1 1 1 1 0 1 0 1 1 1 2 2 3 3 3 3 3 3 3 3 3 4 4 4 4 4 4 4 4 3 2 2 1 1 2
4 3 2 2 1 2 1 1 1 1 1 1 2 1 1 0 1 1 1 1 2 2 2 2 2 2 2 3 3 3 4 4 4 4 4 4 4 3 2 1 1 1 1
3 3 2 1 1 1 1 1 1 1 2 2 2 3 2 1 1 1 1 1 1 1 1 1 1 2 2 2 2 2 3 4 4 4 4 4 3 3 2 2 1 1 1
4 3 2 2 2 2 2 2 2 2 1 3 4 4 3 2 2 2 2 2 1 1 0 1 0 1 1 1 2 2 2 3 4 4 3 3 3 3 2 1 1 1 0
5 4 4 3 2 3 3 3 2 2 2 2 3 4 4 4 4 4 3 2 2 2 1 1 1 1 1 0 1 1 2 2 3 3 3 3 3 2 2 1 1 1 1
7 5 4 4 3 3 3 3 3 3 3 3 4 4 5 5 5 5 3 3 2 2 2 2 2 2 2 1 0 1 1 1 1 2 2 2 2 2 2 2 1 1 1
8 6 5 4 4 4 4 4 3 3 3 4 4 5 5 6 6 6 5 4 4 4 3 3 3 3 3 2 2 2 2 1 2 2 2 2 2 2 3 2 2 2 2
8 7 6 5 4 4 4 3 3 3 4 4 5 6 6 7 7 7 7 6 5 5 4 4 4 4 4 3 3 3 2 2 2 2 2 2 2 3 3 3 2 3 3
9 8 6 5 4 4 5 5 5 4 4 4 5 6 7 7 7 8 8 7 6 6 6 6 6 6 5 5 5 4 4 4 4 4 3 3 3 3 3 3 3 3 4
8 8 6 4 3 4 5 5 6 5 5 4 5 6 7 8 8 8 8 8 8 7 7 7 8 7 7 7 6 6 6 6 6 5 4 4 5 4 4 4 4 4 4
8 7 7 6 5 4 5 5 5 5 5 5 5 6 7 8 9 9 9 9 9 9 9 9 9 9 9 8 8 8 8 7 7 6 6 6 6 6 6 5 5 5 5
7 7 7 7 7 6 5 6 6 6 6 6 7 8 8 9 10 10 10 10 10 10 10 10 11 11 10 10 10 10 9 9 9 9 8 8 8 8 7 7 7 7 7
8 9 9 8 8 6 6 5 6 6 7 8 8 8 9 10 12 12 12 11 12 12 12 12 12 13 12 12 12 12 12 11 11 11 11 11 10 10 10 10 9 10 10
10 10 11 10 7 7 7 6 6 6 7 8 7 8 10 11 12 13 13 13 13 13 13 14 14 14 14 13 13 13 13 14 13 13 13 13 13 12 12 12 12 12 12
10 10 10 9 7 7 6 6 6 7 8 8 8 9 10 11 12 13 14 15 14 14 14 15 15 15 16 15 15 15 15 15 16 16 16 16 15 14 13 13 13 14 13
Wind_Direction
96 100 99 97 94 94 94 90 87 83 78 72 64 57 53 50 48 49 49 47 49 55 58 64 68 69 71 72 72 73 74 75 73 75 80 83 84 85 89 96 102 102 106
95 104 101 97 95 93 92 91 88 81 75 71 65 59 55 53 51 48 44 40 44 51 57 62 64 65 69 69 71 73 74 73 73 76 81 83 86 90 94 100 103 103 107
93 107 108 104 100 95 92 89 85 78 71 67 62 59 57 56 53 47 44 41 44 50 54 59 61 61 62 64 68 69 69 71 74 76 80 83 89 94 94 102 104 105 108
89 102 109 111 109 103 95 89 84 77 70 66 62 60 58 56 51 45 45 43 44 46 49 52 54 52 54 57 60 60 62 66 69 72 79 83 89 94 98 104 106 108 108
102 111 107 104 108 106 96 87 85 79 70 65 62 60 58 56 50 45 42 44 43 42 43 44 48 45 47 52 55 55 57 64 64 69 75 77 86 93 96 103 108 110 107
109 115 109 102 104 105 97 89 86 76 68 66 62 59 56 52 48 44 41 42 42 40 41 43 42 41 43 49 55 55 57 61 64 65 68 73 82 92 98 103 114 113 110
101 109 110 107 103 103 100 92 86 77 71 68 63 57 53 50 45 41 39 39 39 43 43 39 37 40 40 51 53 52 53 60 62 63 66 69 76 88 100 100 110 114 117
96 107 117 118 110 105 100 92 84 76 73 71 60 51 49 50 47 42 38 36 37 46 47 38 39 46 50 54 51 51 53 56 59 61 64 68 77 90 91 99 107 113 119
86 103 113 113 113 111 104 100 89 76 76 72 58 48 45 48 47 45 41 39 41 46 47 40 40 44 49 53 49 47 48 53 60 57 61 65 74 81 81 87 106 112 121
79 97 110 110 110 105 103 104 101 87 81 79 67 48 42 48 53 47 43 46 46 44 43 42 47 46 48 54 51 48 51 55 56 57 56 55 59 65 66 69 92 106 128
79 94 106 107 102 99 102 113 116 102 87 83 82 39 37 59 66 45 44 43 42 42 44 47 52 52 49 58 59 56 51 52 52 53 53 49 49 53 58 66 91 104 119
74 91 104 105 100 99 103 116 126 122 119 171 202 227 6 53 94 49 37 35 33 36 43 54 53 56 57 60 60 53 47 50 48 46 46 45 45 46 55 66 75 102 116
60 73 90 92 91 74 69 89 139 182 244 242 222 213 223 255 209 213 342 17 25 33 42 56 48 47 55 54 48 49 48 46 44 46 47 47 46 43 52 70 65 98 130
45 57 60 29 14 12 352 307 247 237 265 245 237 229 226 233 220 210 235 322 358 15 12 50 57 42 47 50 36 49 52 49 43 45 49 48 48 50 62 81 70 79 128
17 10 7 349 335 334 310 290 270 265 289 263 244 234 235 241 237 221 226 252 269 270 237 116 109 32 31 45 50 53 56 45 40 41 45 45 50 52 51 54 43 53 34
358 350 341 332 320 317 305 292 277 268 271 257 243 243 241 237 234 223 227 246 255 252 225 210 222 259 306 50 67 39 45 36 32 33 39 41 51 42 29 9 344 337 321
350 339 321 312 309 309 311 292 272 280 276 257 245 246 243 229 224 218 227 246 246 235 219 216 227 240 250 246 260 308 335 8 4 10 23 36 41 29 20 11 346 334 328
345 335 318 317 319 319 315 306 286 287 281 266 256 248 236 232 229 226 233 245 244 234 225 224 239 243 242 250 260 278 283 304 321 339 351 12 19 16 14 9 350 330 322
342 331 313 308 317 321 315 308 312 301 285 273 260 247 236 229 230 227 230 235 236 234 227 228 242 246 248 253 258 265 265 264 287 306 313 318 334 347 352 349 339 324 318
338 330 319 313 318 313 307 306 303 296 288 270 262 249 233 228 227 225 229 230 234 239 236 236 241 248 253 255 257 260 259 258 267 277 278 292 305 316 327 327 319 309 303
333 328 324 314 312 302 293 287 291 292 285 269 255 241 231 226 225 227 231 229 235 245 245 246 246 249 254 256 258 258 261 263 263 260 260 276 287 295 303 306 307 305 302
331 323 327 315 301 291 282 276 279 282 281 266 252 241 236 230 229 230 233 237 243 249 252 254 251 251 252 254 256 256 261 262 261 259 260 269 276 281 288 291 289 290 291
324 325 319 315 300 288 285 277 275 270 270 267 253 245 241 235 234 235 236 240 246 250 251 254 255 256 255 253 254 257 258 261 264 263 262 267 271 274 281 282 281 281 284
314 319 318 312 303 287 285 289 283 274 267 265 257 252 247 243 242 242 241 243 248 250 251 253 255 257 258 254 254 256 257 259 263 263 265 268 270 273 276 279 278 277 279
313 317 317 313 298 281 280 280 277 274 267 263 260 257 253 252 249 245 244 244 246 248 253 255 255 255 255 254 254 256 257 259 262 263 265 268 270 270 272 274 275 278 278
312 310 315 314 296 290 286 278 276 275 268 260 259 258 256 255 254 250 246 246 247 250 253 256 255 256 257 256 255 256 258 261 263 265 266 268 269 270 270 271 273 275 276
Height
5885 5885 5886 5886 5886 5886 5887 5888 5889 5889 5890 5890 5891 5892 5892 5892 5892 5893 5893 5893 5893 5893 5893 5893 5893 5893 5893 5893 5893 5893 5894 5894 5894 5894 5894 5894 5894 5894 5894 5895 5895 5895 5895
5886 5886 5887 5887 5887 5887 5888 5888 5889 5890 5891 5891 5892 5893 5893 5893 5894 5894 5894 5894 5894 5894 5894 5894 5894 5894 5894 5894 5894 5894 5894 5895 5895 5895 5895 5895 5895 5895 5895 5895 5896 5896 5896
5887 5887 5887 5887 5887 5888 5888 5889 5890 5891 5892 5892 5893 5894 5894 5894 5895 5895 5895 5895 5895 5895 5895 5894 5895 5895 5895 5895 5895 5895 5895 5895 5896 5896 5896 5896 5896 5896 5896 5896 5896 5897 5897
5888 5888 5888 5888 5888 5889 5889 5890 5890 5891 5892 5893 5894 5894 5895 5895 5895 5895 5896 5896 5895 5895 5895 5895 5895 5895 5895 5895 5896 5896 5896 5896 5896 5896 5897 5897 5897 5897 5897 5897 5897 5897 5898
5888 5888 5888 5888 5889 5889 5890 5890 5891 5892 5893 5893 5894 5895 5895 5896 5896 5896 5896 5896 5896 5896 5896 5896 5896 5896 5896 5896 5896 5896 5896 5897 5897 5897 5897 5897 5897 5897 5897 5898 5898 5898 5899
5888 5888 5889 5889 5889 5890 5890 5891 5892 5892 5893 5894 5894 5895 5896 5896 5896 5897 5897 5897 5897 5897 5897 5897 5897 5897 5897 5897 5897 5897 5897 5897 5898 5898 5898 5898 5898 5898 5898 5898 5899 5899 5899
5889 5889 5889 5889 5890 5890 5891 5891 5892 5893 5893 5894 5894 5895 5896 5896 5897 5897 5897 5897 5897 5897 5897 5897 5897 5897 5897 5897 5898 5898 5898 5898 5898 5898 5898 5898 5899 5899 5899 5899 5899 5899 5900
5890 5889 5889 5889 5890 5890 5891 5892 5892 5893 5894 5895 5895 5896 5896 5897 5897 5897 5897 5898 5898 5898 5898 5898 5898 5898 5898 5898 5898 5899 5899 5899 5899 5899 5899 5899 5899 5899 5899 5900 5900 5900 5900
5890 5890 5890 5890 5890 5891 5892 5892 5893 5893 5894 5895 5895 5896 5896 5897 5897 5897 5898 5898 5898 5898 5898 5898 5898 5899 5899 5899 5899 5899 5899 5899 5900 5900 5900 5900 5900 5900 5900 5900 5900 5901 5901
5890 5890 5890 5890 5891 5891 5892 5892 5893 5894 5894 5895 5895 5896 5896 5897 5897 5898 5898 5898 5899 5899 5898 5899 5899 5899 5899 5900 5899 5900 5900 5900 5900 5900 5900 5900 5900 5900 5901 5901 5901 5901 5902
5891 5891 5891 5891 5891 5891 5892 5892 5893 5893 5894 5895 5895 5896 5896 5897 5897 5898 5898 5899 5899 5899 5899 5899 5899 5900 5900 5900 5900 5900 5900 5901 5901 5901 5901 5901 5901 5901 5901 5901 5901 5902 5902
5891 5891 5891 5892 5892 5892 5892 5892 5893 5893 5894 5894 5895 5895 5896 5897 5897 5898 5898 5899 5899 5899 5899 5900 5900 5900 5901 5901 5901 5901 5901 5901 5901 5901 5901 5901 5901 5901 5901 5902 5902 5902 5902
5892 5892 5892 5892 5892 5892 5892 5892 5892 5893 5893 5894 5894 5895 5896 5896 5897 5898 5898 5899 5900 5900 5900 5900 5900 5901 5901 5902 5902 5902 5902 5902 5902 5902 5901 5902 5902 5902 5902 5902 5902 5903 5903
5892 5892 5892 5892 5892 5892 5892 5892 5892 5892 5892 5893 5894 5894 5895 5896 5897 5897 5898 5899 5900 5900 5900 5900 5901 5901 5902 5902 5902 5902 5902 5902 5902 5902 5902 5902 5902 5902 5902 5902 5903 5903 5903
5893 5892 5892 5892 5892 5892 5892 5892 5891 5891 5892 5892 5893 5894 5895 5896 5896 5897 5898 5899 5899 5900 5900 5901 5901 5902 5902 5902 5903 5903 5903 5903 5902 5902 5902 5902 5902 5902 5902 5903 5903 5903 5903
5893 5893 5892 5891 5891 5891 5891 5891 5891 5891 5891 5891 5892 5893 5894 5895 5896 5897 5898 5898 5899 5900 5900 5901 5901 5902 5902 5903 5903 5903 5903 5903 5903 5903 5903 5903 5903 5903 5903 5903 5903 5903 5903
5893 5893 5892 5891 5890 5890 5890 5890 5890 5890 5890 5891 5891 5892 5892 5894 5895 5896 5897 5898 5899 5899 5900 5901 5901 5902 5902 5902 5903 5903 5903 5903 5903 5903 5903 5903 5903 5903 5903 5903 5903 5903 5903
5893 5892 5891 5890 5890 5889 5889 5889 5889 5889 5889 5889 5890 5891 5891 5893 5894 5895 5896 5897 5898 5899 5900 5900 5901 5901 5902 5902 5903 5903 5903 5903 5903 5903 5903 5903 5903 5903 5903 5903 5903 5903 5903
5892 5891 5890 5890 5889 5889 5889 5888 5888 5888 5888 5888 5889 5889 5890 5891 5892 5894 5895 5896 5897 5898 5899 5900 5900 5901 5901 5902 5902 5902 5902 5903 5903 5903 5903 5903 5903 5903 5903 5903 5903 5903 5903
5892 5890 5889 5888 5888 5888 5888 5888 5887 5887 5887 5887 5887 5888 5889 5890 5891 5892 5894 5895 5896 5897 5898 5899 5899 5900 5901 5901 5901 5902 5902 5902 5902 5902 5903 5903 5903 5903 5902 5902 5902 5902 5902
5890 5889 5888 5887 5887 5887 5887 5887 5887 5886 5886 5886 5886 5886 5887 5889 5890 5891 5893 5894 5895 5896 5897 5898 5898 5899 5899 5900 5900 5901 5901 5901 5902 5902 5902 5902 5902 5902 5902 5902 5901 5901 5901
5889 5888 5888 5887 5886 5886 5886 5886 5886 5885 5885 5885 5885 5885 5886 5887 5888 5890 5891 5892 5894 5895 5896 5896 5897 5898 5898 5899 5899 5900 5900 5901 5900 5901 5901 5901 5901 5901 5901 5901 5901 5900 5900
5888 5887 5887 5886 5885 5884 5884 5884 5884 5884 5884 5884 5884 5884 5885 5886 5887 5888 5889 5891 5892 5893 5894 5894 5895 5896 5896 5897 5898 5898 5899 5899 5899 5900 5900 5900 5899 5899 5899 5899 5899 5899 5899
5887 5885 5884 5884 5883 5883 5883 5883 5882 5882 5883 5883 5883 5883 5884 5884 5885 5886 5888 5888 5889 5890 5891 5892 5893 5893 5894 5894 5895 5896 5897 5897 5897 5898 5898 5898 5898 5898 5897 5897 5897 5897 5897
5885 5884 5882 5881 5881 5881 5881 5881 5881 5880 5881 5881 5881 5882 5882 5882 5883 5884 5885 5886 5887 5888 5889 5889 5890 5891 5891 5892 5893 5893 5894 5894 5895 5895 5896 5896 5896 5896 5895 5895 5895 5895 5894
5883 5882 5881 5880 5879 5879 5879 5878 5878 5879 5879 5879 5879 5879 5880 5880 5881 5881 5882 5883 5884 5885 5886 5886 5887 5888 5888 5889 5890 5890 5891 5891 5892 5892 5892 5893 5893 5893 5892 5892 5892 5892 5891